Weather History for Copper Mountain, CO

Change the Weather History Date:

Friday, September 7, 2012

  Actual Average (KLXV) Record (KLXV)
Temperature  
Mean Temperature 47 °F -  
Max Temperature 53 °F 63 °F 74 °F (1977)
Min Temperature 41 °F 33 °F 25 °F (2010)
Degree Days  
Heating Degree Days 18 17  
Month to date heating degree days 111  
Since 1 July heating degree days 833  
Cooling Degree Days 0 0  
Month to date cooling degree days 0  
Year to date cooling degree days 0  
Moisture  
Dew Point 33 °F    
Average Humidity 61    
Maximum Humidity 87    
Minimum Humidity 35    
Precipitation  
Precipitation 0.14 in 0.04 in 0.76 in (2011)
Month to date precipitation 0.32  
Year to date precipitation 9.27  
Sea Level Pressure  
Sea Level Pressure 30.62 in    
Wind  
Wind Speed 16 mph (West)    
Max Wind Speed 29 mph    
Max Gust Speed 47 mph    
Visibility 9 miles    
Events Rain    
T = Trace of Precipitation, MM = Missing Value Source: NWS Daily Summary

Daily Weather History Graph

Daily Weather History Graph

Search for Another Location

Airport:

Trip Planner

Search our weather history database for the weather conditions in past years. The results will help you decide how hot, cold, wet, or windy it might be!

Date:

Astronomy

Sep. 07, 2012 Rise Set
Actual Time 6:38 AM MDT 7:25 PM MDT
Civil Twilight 6:11 AM MDT 7:52 PM MDT
Nautical Twilight 5:39 AM MDT 8:24 PM MDT
Astronomical Twilight 5:06 AM MDT 8:57 PM MDT
Moon 11:25 PM MDT (9/7) 1:31 PM MDT (9/7)
Length of Visible Light 13h 40m
Length of Day
12h 46m
Waning Gibbous, 58% of the Moon is Illuminated
Sep 7
Waning Gibbous
Sep 8
Last Quarter
Sep 15
New
Sep 22
First Quarter
Sep 29
Full

Hourly Weather History & Observations

Time (MDT) Temp. Windchill Dew Point Humidity Pressure Visibility Wind Dir Wind Speed Gust Speed Precip Events Conditions
12:15 AM 51.8 °F - 28.4 °F 41% 30.57 in 10.0 mi West 19.6 mph - N/A   Overcast
12:35 AM 51.8 °F - 32.0 °F 47% 30.57 in 10.0 mi West 23.0 mph 28.8 mph N/A   Overcast
12:55 AM 50.0 °F - 32.0 °F 50% 30.59 in 10.0 mi West 17.3 mph 25.3 mph N/A   Light Drizzle
1:15 AM 46.4 °F 39.0 °F 33.8 °F 62% 30.59 in 10.0 mi West 19.6 mph - N/A   Overcast
1:35 AM 44.6 °F 38.4 °F 33.8 °F 66% 30.59 in 10.0 mi West 12.7 mph 21.9 mph N/A Rain Light Rain
1:55 AM 44.6 °F 39.7 °F 35.6 °F 71% 30.59 in 10.0 mi WSW 9.2 mph 17.3 mph N/A Rain Rain
2:15 AM 44.6 °F 37.8 °F 35.6 °F 71% 30.59 in 10.0 mi West 15.0 mph - N/A   Drizzle
2:35 AM 44.6 °F 38.1 °F 37.4 °F 76% 30.59 in 7.0 mi West 13.8 mph - 0.01 in Rain Light Rain
2:55 AM 44.6 °F 37.8 °F 37.4 °F 76% 30.58 in 4.0 mi West 15.0 mph - 0.03 in Rain Rain
3:15 AM 42.8 °F 34.3 °F 37.4 °F 81% 30.58 in 7.0 mi West 19.6 mph - 0.03 in Rain Light Rain
3:35 AM 42.8 °F - 37.4 °F 81% 30.57 in 4.0 mi Calm Calm - 0.04 in Rain Light Rain
3:55 AM 42.8 °F 39.3 °F 37.4 °F 81% 30.56 in 1.2 mi SSW 5.8 mph - 0.07 in Rain Rain
4:15 AM 41.0 °F 35.2 °F 35.6 °F 81% 30.57 in 4.0 mi South 9.2 mph - 0.02 in Rain Light Rain
4:35 AM 41.0 °F 31.6 °F 35.6 °F 81% 30.52 in 1.2 mi SSE 20.7 mph - 0.04 in Rain Light Rain
4:55 AM 41.0 °F 32.2 °F 35.6 °F 81% 30.53 in 10.0 mi South 18.4 mph 23.0 mph 0.04 in   Overcast
5:15 AM 41.0 °F 31.9 °F 35.6 °F 81% 30.54 in 10.0 mi South 19.6 mph 27.6 mph N/A   Overcast
5:35 AM 41.0 °F 34.7 °F 35.6 °F 81% 30.55 in 10.0 mi South 10.4 mph 23.0 mph N/A   Overcast
5:55 AM 44.6 °F 39.2 °F 35.6 °F 71% 30.55 in 10.0 mi SW 10.4 mph 17.3 mph N/A   Overcast
6:15 AM 44.6 °F 39.2 °F 35.6 °F 71% 30.55 in 10.0 mi SW 10.4 mph 17.3 mph N/A   Overcast
6:25 AM 44.6 °F 40.2 °F 35.6 °F 71% 30.56 in 10.0 mi WSW 8.1 mph - N/A   Overcast
7:15 AM 44.6 °F 39.7 °F 37.4 °F 76% 30.56 in 10.0 mi West 9.2 mph 18.4 mph N/A   Overcast
7:35 AM 44.6 °F 38.4 °F 37.4 °F 76% 30.57 in 10.0 mi WSW 12.7 mph 18.4 mph N/A   Overcast
7:55 AM 44.6 °F 39.2 °F 37.4 °F 76% 30.58 in 10.0 mi West 10.4 mph - N/A   Overcast
8:15 AM 44.6 °F 38.4 °F 37.4 °F 76% 30.59 in 10.0 mi West 12.7 mph 18.4 mph N/A   Overcast
8:35 AM 44.6 °F 36.9 °F 37.4 °F 76% 30.59 in 10.0 mi West 18.4 mph - N/A   Overcast
8:55 AM 44.6 °F 37.2 °F 39.2 °F 81% 30.59 in 1.0 mi West 17.3 mph - N/A   Haze
9:15 AM 44.6 °F 36.9 °F 39.2 °F 81% 30.60 in 1.0 mi West 18.4 mph 21.9 mph N/A   Haze
9:35 AM 44.6 °F 36.4 °F 39.2 °F 81% 30.61 in 0.2 mi West 20.7 mph 26.5 mph N/A   Haze
9:55 AM 44.6 °F 36.1 °F 39.2 °F 81% 30.62 in 5.0 mi West 21.9 mph 26.5 mph N/A   Haze
10:15 AM 44.6 °F 37.8 °F 41.0 °F 87% 30.62 in 10.0 mi West 15.0 mph 23.0 mph N/A   Overcast
10:35 AM 44.6 °F 35.9 °F 39.2 °F 81% 30.62 in 10.0 mi West 23.0 mph - N/A   Overcast
10:55 AM 46.4 °F 39.5 °F 39.2 °F 76% 30.63 in 10.0 mi West 17.3 mph 26.5 mph N/A   Overcast
11:15 AM 46.4 °F 39.5 °F 37.4 °F 71% 30.64 in 10.0 mi West 17.3 mph 26.5 mph N/A   Mostly Cloudy
11:35 AM 48.2 °F - 35.6 °F 62% 30.63 in 10.0 mi West 19.6 mph 32.2 mph N/A   Mostly Cloudy
11:55 AM 51.8 °F - 35.6 °F 54% 30.63 in 10.0 mi West 18.4 mph 25.3 mph N/A   Mostly Cloudy
12:15 PM 50.0 °F - 33.8 °F 54% 30.63 in 10.0 mi West 25.3 mph 29.9 mph N/A   Mostly Cloudy
12:35 PM 51.8 °F - 32.0 °F 47% 30.63 in 10.0 mi West 18.4 mph 36.8 mph N/A   Scattered Clouds
12:55 PM 53.6 °F - 33.8 °F 47% 30.62 in 10.0 mi West 20.7 mph 38.0 mph N/A   Mostly Cloudy
1:15 PM 50.0 °F - 33.8 °F 54% 30.62 in 10.0 mi WNW 26.5 mph 35.7 mph N/A   Mostly Cloudy
1:35 PM 44.6 °F 35.3 °F 30.2 °F 57% 30.64 in 10.0 mi West 26.5 mph 39.1 mph N/A   Overcast
1:55 PM 50.0 °F - 33.8 °F 54% 30.63 in 10.0 mi West 24.2 mph 34.5 mph N/A   Mostly Cloudy
2:15 PM 53.6 °F - 35.6 °F 51% 30.63 in 10.0 mi West 21.9 mph 28.8 mph N/A   Scattered Clouds
2:35 PM 50.0 °F - 32.0 °F 50% 30.63 in 10.0 mi WNW 28.8 mph 35.7 mph N/A   Overcast
2:55 PM 44.6 °F 35.7 °F 33.8 °F 66% 30.65 in 10.0 mi West 24.2 mph 47.2 mph N/A Rain Light Rain
3:15 PM 44.6 °F 37.2 °F 33.8 °F 66% 30.65 in 10.0 mi West 17.3 mph 29.9 mph N/A   Overcast
3:55 PM 53.6 °F - 35.6 °F 51% 30.64 in 10.0 mi West 10.4 mph 19.6 mph N/A   Mostly Cloudy
4:15 PM 51.8 °F - 33.8 °F 50% 30.64 in 10.0 mi West 13.8 mph 23.0 mph N/A   Mostly Cloudy
4:35 PM 53.6 °F - 30.2 °F 41% 30.64 in 10.0 mi West 21.9 mph 29.9 mph N/A   Mostly Cloudy
4:55 PM 53.6 °F - 30.2 °F 41% 30.64 in 10.0 mi West 24.2 mph 27.6 mph N/A   Mostly Cloudy
5:15 PM 53.6 °F - 32.0 °F 44% 30.64 in 10.0 mi West 18.4 mph 25.3 mph N/A   Scattered Clouds
5:35 PM 53.6 °F - 28.4 °F 38% 30.64 in 10.0 mi West 25.3 mph 31.1 mph N/A   Scattered Clouds
5:55 PM 53.6 °F - 26.6 °F 35% 30.64 in 10.0 mi West 23.0 mph 28.8 mph N/A   Mostly Cloudy
6:15 PM 53.6 °F - 26.6 °F 35% 30.64 in 10.0 mi WNW 24.2 mph 32.2 mph N/A   Mostly Cloudy
6:35 PM 53.6 °F - 26.6 °F 35% 30.64 in 10.0 mi West 16.1 mph 24.2 mph N/A   Scattered Clouds
6:55 PM 53.6 °F - 26.6 °F 35% 30.65 in 10.0 mi West 20.7 mph - N/A   Scattered Clouds
7:15 PM 50.0 °F - 24.8 °F 37% 30.65 in 10.0 mi West 20.7 mph - N/A   Scattered Clouds
7:35 PM 46.4 °F 39.5 °F 23.0 °F 40% 30.66 in 10.0 mi West 17.3 mph - N/A   Scattered Clouds
7:55 PM 46.4 °F 40.4 °F 23.0 °F 40% 30.67 in 10.0 mi West 13.8 mph - N/A   Scattered Clouds
8:15 PM 46.4 °F 40.1 °F 23.0 °F 40% 30.67 in 10.0 mi WNW 15.0 mph - N/A   Scattered Clouds
8:35 PM 46.4 °F 42.9 °F 28.4 °F 50% 30.69 in 10.0 mi West 6.9 mph - N/A   Clear
8:55 PM 44.6 °F 38.8 °F 28.4 °F 53% 30.69 in 10.0 mi West 11.5 mph - N/A   Clear
9:15 PM 44.6 °F 42.2 °F 28.4 °F 53% 30.69 in 10.0 mi West 4.6 mph - N/A   Clear
9:35 PM 44.6 °F 43.1 °F 28.4 °F 53% 30.69 in 10.0 mi West 3.5 mph - N/A   Clear
9:55 PM 44.6 °F 43.1 °F 30.2 °F 57% 30.70 in 10.0 mi WNW 3.5 mph - N/A   Clear
10:35 PM 44.6 °F 42.2 °F 30.2 °F 57% 30.71 in 10.0 mi WNW 4.6 mph - N/A   Clear
10:55 PM 44.6 °F 41.4 °F 30.2 °F 57% 30.71 in 10.0 mi West 5.8 mph - N/A   Clear
11:15 PM 44.6 °F 40.2 °F 30.2 °F 57% 30.71 in 10.0 mi West 8.1 mph - N/A   Clear
11:35 PM 44.6 °F 39.7 °F 30.2 °F 57% 30.71 in 10.0 mi West 9.2 mph - N/A   Clear
11:55 PM 44.6 °F 40.7 °F 30.2 °F 57% 30.71 in 10.0 mi West 6.9 mph - N/A   Clear